Time,TemperatureF,DewpointF,PressureIn,WindDirection,WindDirectionDegrees,WindSpeedMPH,WindSpeedGustMPH,Humidity,HourlyPrecipIn,Conditions,Clouds,dailyrainin,SoftwareType,DateUTC
2013-03-06 00:00:00,30.6,14.1,29.61,West,274,0.0,0.0,50,0.00,,---,0.00,VWS V14.01,2013-03-06 07:00:00,
2013-03-06 00:05:00,30.6,14.1,29.61,West,273,0.0,0.0,50,0.00,,---,0.00,VWS V14.01,2013-03-06 07:05:00,
2013-03-06 00:10:00,30.4,14.0,29.61,West,274,0.0,0.0,50,0.00,,---,0.00,VWS V14.01,2013-03-06 07:10:00,
2013-03-06 00:15:00,30.4,14.0,29.61,West,274,0.0,0.0,50,0.00,,---,0.00,VWS V14.01,2013-03-06 07:15:00,
2013-03-06 00:20:00,30.2,14.3,29.61,NW,306,2.7,2.7,51,0.00,,---,0.00,VWS V14.01,2013-03-06 07:20:00,
2013-03-06 00:25:00,30.2,14.7,29.61,WNW,291,2.2,2.2,52,0.00,,---,0.00,VWS V14.01,2013-03-06 07:25:00,
2013-03-06 00:30:00,30.0,14.5,29.61,WNW,284,0.0,0.0,52,0.00,,---,0.00,VWS V14.01,2013-03-06 07:30:00,
2013-03-06 00:35:00,30.0,14.5,29.61,West,278,0.0,0.0,52,0.00,,---,0.00,VWS V14.01,2013-03-06 07:35:00,
2013-03-06 00:40:00,30.0,14.5,29.61,West,276,0.0,3.1,52,0.00,,---,0.00,VWS V14.01,2013-03-06 07:40:00,
2013-03-06 00:45:00,29.8,14.4,29.61,West,276,0.0,2.7,52,0.00,,---,0.00,VWS V14.01,2013-03-06 07:45:00,
2013-03-06 00:50:00,29.7,14.2,29.61,West,276,0.0,0.0,52,0.00,,---,0.00,VWS V14.01,2013-03-06 07:50:00,
2013-03-06 00:55:00,29.7,14.2,29.61,West,276,0.0,0.0,52,0.00,,---,0.00,VWS V14.01,2013-03-06 07:55:00,
2013-03-06 01:00:00,29.5,14.0,29.61,West,276,0.0,0.0,52,0.00,,---,0.00,VWS V14.01,2013-03-06 08:00:00,
2013-03-06 01:05:00,29.5,14.0,29.61,WSW,256,3.1,3.1,52,0.00,,---,0.00,VWS V14.01,2013-03-06 08:05:00,
2013-03-06 01:10:00,29.5,14.0,29.61,West,265,0.0,0.0,52,0.00,,---,0.00,VWS V14.01,2013-03-06 08:10:00,
2013-03-06 01:15:00,29.3,13.9,29.61,West,266,0.0,0.0,52,0.00,,---,0.00,VWS V14.01,2013-03-06 08:15:00,
2013-03-06 01:20:00,29.1,14.1,29.61,West,267,0.0,0.0,53,0.00,,---,0.00,VWS V14.01,2013-03-06 08:20:00,
2013-03-06 01:25:00,29.1,14.1,29.61,WNW,302,0.0,0.0,53,0.00,,---,0.00,VWS V14.01,2013-03-06 08:25:00,
2013-03-06 01:30:00,28.9,14.0,29.61,WNW,302,0.0,0.0,53,0.00,,---,0.00,VWS V14.01,2013-03-06 08:30:00,
2013-03-06 01:35:00,28.8,13.8,29.58,WNW,302,0.0,0.0,53,0.00,,---,0.00,VWS V14.01,2013-03-06 08:35:00,
2013-03-06 01:40:00,28.8,13.8,29.58,WNW,302,0.0,0.0,53,0.00,,---,0.00,VWS V14.01,2013-03-06 08:40:00,
2013-03-06 01:45:00,28.8,13.4,29.58,WNW,302,0.0,0.0,52,0.00,,---,0.00,VWS V14.01,2013-03-06 08:45:00,
2013-03-06 01:50:00,28.6,13.2,29.61,WNW,302,0.0,0.0,52,0.00,,---,0.00,VWS V14.01,2013-03-06 08:50:00,
2013-03-06 01:55:00,28.6,13.2,29.61,WNW,302,0.0,0.0,52,0.00,,---,0.00,VWS V14.01,2013-03-06 08:55:00,
2013-03-06 02:00:00,28.4,13.5,29.61,WNW,296,3.1,3.1,53,0.00,,---,0.00,VWS V14.01,2013-03-06 09:00:00,
2013-03-06 02:05:00,28.6,13.2,29.58,West,268,0.0,0.0,52,0.00,,---,0.00,VWS V14.01,2013-03-06 09:05:00,
2013-03-06 02:10:00,28.6,12.8,29.58,West,267,0.0,0.0,51,0.00,,---,0.00,VWS V14.01,2013-03-06 09:10:00,
2013-03-06 02:15:00,28.4,13.0,29.58,West,267,0.0,0.0,52,0.00,,---,0.00,VWS V14.01,2013-03-06 09:15:00,
2013-03-06 02:20:00,28.2,12.9,29.58,West,267,0.0,0.0,52,0.00,,---,0.00,VWS V14.01,2013-03-06 09:20:00,
2013-03-06 02:25:00,27.9,12.5,29.58,West,264,0.0,0.0,52,0.00,,---,0.00,VWS V14.01,2013-03-06 09:25:00,
2013-03-06 02:30:00,27.9,12.5,29.58,SW,236,0.0,2.7,52,0.00,,---,0.00,VWS V14.01,2013-03-06 09:30:00,
2013-03-06 02:35:00,28.0,12.3,29.58,West,260,3.1,3.1,51,0.00,,---,0.00,VWS V14.01,2013-03-06 09:35:00,
2013-03-06 02:40:00,28.0,12.7,29.58,West,271,3.6,3.6,52,0.00,,---,0.00,VWS V14.01,2013-03-06 09:40:00,
2013-03-06 02:45:00,27.9,12.5,29.58,West,275,0.0,0.0,52,0.00,,---,0.00,VWS V14.01,2013-03-06 09:45:00,
2013-03-06 02:50:00,27.7,12.4,29.58,WNW,290,0.0,0.0,52,0.00,,---,0.00,VWS V14.01,2013-03-06 09:50:00,
2013-03-06 02:55:00,27.5,12.2,29.58,WNW,289,0.0,0.0,52,0.00,,---,0.00,VWS V14.01,2013-03-06 09:55:00,
2013-03-06 03:00:00,27.5,12.2,29.58,WNW,287,2.7,3.1,52,0.00,,---,0.00,VWS V14.01,2013-03-06 10:00:00,
2013-03-06 03:05:00,27.3,12.0,29.58,WNW,287,0.0,0.0,52,0.00,,---,0.00,VWS V14.01,2013-03-06 10:05:00,
2013-03-06 03:10:00,27.3,12.0,29.58,WNW,282,3.1,3.1,52,0.00,,---,0.00,VWS V14.01,2013-03-06 10:10:00,
2013-03-06 03:15:00,27.3,12.0,29.58,West,260,0.0,0.0,52,0.00,,---,0.00,VWS V14.01,2013-03-06 10:15:00,
2013-03-06 03:20:00,27.1,11.9,29.58,West,265,0.0,0.0,52,0.00,,---,0.00,VWS V14.01,2013-03-06 10:20:00,
2013-03-06 03:25:00,27.0,12.1,29.58,West,281,0.0,0.0,53,0.00,,---,0.00,VWS V14.01,2013-03-06 10:25:00,
2013-03-06 03:30:00,26.8,12.0,29.58,West,265,3.1,3.6,53,0.00,,---,0.00,VWS V14.01,2013-03-06 10:30:00,
2013-03-06 03:35:00,26.6,12.2,29.58,WSW,258,0.0,0.0,54,0.00,,---,0.00,VWS V14.01,2013-03-06 10:35:00,
2013-03-06 03:40:00,26.8,12.0,29.58,WNW,290,2.7,2.7,53,0.00,,---,0.00,VWS V14.01,2013-03-06 10:40:00,
2013-03-06 03:45:00,27.0,12.1,29.58,WNW,284,2.7,4.0,53,0.00,,---,0.00,VWS V14.01,2013-03-06 10:45:00,
2013-03-06 03:50:00,26.8,12.0,29.58,West,275,3.6,3.6,53,0.00,,---,0.00,VWS V14.01,2013-03-06 10:50:00,
2013-03-06 03:55:00,26.6,12.2,29.58,West,266,3.6,3.6,54,0.00,,---,0.00,VWS V14.01,2013-03-06 10:55:00,
2013-03-06 04:00:00,26.4,12.0,29.58,West,280,4.9,4.9,54,0.00,,---,0.00,VWS V14.01,2013-03-06 11:00:00,
2013-03-06 04:05:00,26.1,12.1,29.55,WSW,247,3.1,3.1,55,0.00,,---,0.00,VWS V14.01,2013-03-06 11:05:00,
2013-03-06 04:10:00,25.9,12.4,29.55,West,274,2.7,2.7,56,0.00,,---,0.00,VWS V14.01,2013-03-06 11:10:00,
2013-03-06 04:15:00,25.9,12.4,29.55,WSW,241,3.6,3.6,56,0.00,,---,0.00,VWS V14.01,2013-03-06 11:15:00,
2013-03-06 04:20:00,25.9,12.4,29.55,West,268,2.7,2.7,56,0.00,,---,0.00,VWS V14.01,2013-03-06 11:20:00,
2013-03-06 04:25:00,25.9,12.4,29.55,West,266,3.1,3.1,56,0.00,,---,0.00,VWS V14.01,2013-03-06 11:25:00,
2013-03-06 04:30:00,25.9,11.9,29.55,West,269,4.0,4.0,55,0.00,,---,0.00,VWS V14.01,2013-03-06 11:30:00,
2013-03-06 04:35:00,25.9,11.9,29.55,WNW,301,2.2,2.2,55,0.00,,---,0.00,VWS V14.01,2013-03-06 11:35:00,
2013-03-06 04:40:00,25.7,11.8,29.55,West,269,4.0,4.0,55,0.00,,---,0.00,VWS V14.01,2013-03-06 11:40:00,
2013-03-06 04:45:00,25.7,12.2,29.55,West,277,4.0,4.0,56,0.00,,---,0.00,VWS V14.01,2013-03-06 11:45:00,
2013-03-06 04:50:00,25.7,12.2,29.55,West,270,3.1,3.6,56,0.00,,---,0.00,VWS V14.01,2013-03-06 11:50:00,
2013-03-06 04:55:00,25.9,11.9,29.55,WNW,295,3.6,4.0,55,0.00,,---,0.00,VWS V14.01,2013-03-06 11:55:00,
2013-03-06 05:00:00,25.9,11.9,29.55,WSW,254,5.8,5.8,55,0.00,,---,0.00,VWS V14.01,2013-03-06 12:00:00,
2013-03-06 05:05:00,25.9,11.9,29.52,West,267,2.7,2.7,55,0.00,,---,0.00,VWS V14.01,2013-03-06 12:05:00,
2013-03-06 05:10:00,25.7,11.8,29.52,West,268,0.0,0.0,55,0.00,,---,0.00,VWS V14.01,2013-03-06 12:10:00,
2013-03-06 05:15:00,25.5,11.6,29.52,West,272,3.1,3.1,55,0.00,,---,0.00,VWS V14.01,2013-03-06 12:15:00,
2013-03-06 05:20:00,25.5,12.0,29.55,WNW,286,0.0,0.0,56,0.00,,---,0.00,VWS V14.01,2013-03-06 12:20:00,
2013-03-06 05:25:00,25.5,12.0,29.55,WNW,285,0.0,0.0,56,0.00,,---,0.00,VWS V14.01,2013-03-06 12:25:00,
2013-03-06 05:30:00,25.5,12.0,29.55,WNW,284,3.6,3.6,56,0.00,,---,0.00,VWS V14.01,2013-03-06 12:30:00,
2013-03-06 05:35:00,25.5,12.0,29.52,WNW,293,3.6,3.6,56,0.00,,---,0.00,VWS V14.01,2013-03-06 12:35:00,
2013-03-06 05:40:00,25.7,12.6,29.52,NW,309,0.0,0.0,57,0.00,,---,0.00,VWS V14.01,2013-03-06 12:40:00,
2013-03-06 05:45:00,25.7,12.6,29.52,NNW,330,0.0,0.0,57,0.00,,---,0.00,VWS V14.01,2013-03-06 12:45:00,
2013-03-06 05:50:00,25.7,13.8,29.52,NNW,331,0.0,0.0,60,0.00,,---,0.00,VWS V14.01,2013-03-06 12:50:00,
2013-03-06 05:55:00,25.9,13.9,29.52,West,264,4.0,6.3,60,0.00,,---,0.00,VWS V14.01,2013-03-06 12:55:00,
2013-03-06 06:00:00,26.4,13.7,29.52,WSW,251,3.1,4.0,58,0.00,,---,0.00,VWS V14.01,2013-03-06 13:00:00,
2013-03-06 06:05:00,27.0,13.0,29.55,WSW,251,0.0,0.0,55,0.00,,---,0.00,VWS V14.01,2013-03-06 13:05:00,
2013-03-06 06:10:00,27.1,13.1,29.55,WSW,251,0.0,0.0,55,0.00,,---,0.00,VWS V14.01,2013-03-06 13:10:00,
2013-03-06 06:15:00,27.3,13.3,29.55,WSW,251,0.0,0.0,55,0.00,,---,0.00,VWS V14.01,2013-03-06 13:15:00,
2013-03-06 06:20:00,27.7,13.2,29.52,WSW,251,0.0,0.0,54,0.00,,---,0.00,VWS V14.01,2013-03-06 13:20:00,
2013-03-06 06:25:00,27.9,13.4,29.52,WSW,250,2.7,3.1,54,0.00,,---,0.00,VWS V14.01,2013-03-06 13:25:00,
2013-03-06 06:30:00,28.0,13.1,29.52,NNW,346,0.0,0.0,53,0.00,,---,0.00,VWS V14.01,2013-03-06 13:30:00,
2013-03-06 06:35:00,28.2,13.3,29.52,WNW,294,0.0,0.0,53,0.00,,---,0.00,VWS V14.01,2013-03-06 13:35:00,
2013-03-06 06:40:00,28.4,13.0,29.52,West,262,3.1,4.9,52,0.00,,---,0.00,VWS V14.01,2013-03-06 13:40:00,
2013-03-06 06:45:00,28.4,13.0,29.52,SW,236,0.0,0.0,52,0.00,,---,0.00,VWS V14.01,2013-03-06 13:45:00,
2013-03-06 06:50:00,28.4,13.0,29.52,SW,236,0.0,0.0,52,0.00,,---,0.00,VWS V14.01,2013-03-06 13:50:00,
2013-03-06 06:55:00,28.6,12.8,29.52,SW,236,0.0,0.0,51,0.00,,---,0.00,VWS V14.01,2013-03-06 13:55:00,
2013-03-06 07:00:00,28.6,13.2,29.52,SW,236,0.0,0.0,52,0.00,,---,0.00,VWS V14.01,2013-03-06 14:00:00,
2013-03-06 07:05:00,28.8,13.4,29.52,SW,236,0.0,0.0,52,0.00,,---,0.00,VWS V14.01,2013-03-06 14:05:00,
2013-03-06 07:10:00,28.8,13.4,29.52,SW,236,0.0,0.0,52,0.00,,---,0.00,VWS V14.01,2013-03-06 14:10:00,
2013-03-06 07:15:00,28.6,13.2,29.52,SW,236,0.0,0.0,52,0.00,,---,0.00,VWS V14.01,2013-03-06 14:15:00,
2013-03-06 07:20:00,28.6,13.2,29.49,SW,236,0.0,0.0,52,0.00,,---,0.00,VWS V14.01,2013-03-06 14:20:00,
2013-03-06 07:25:00,28.6,13.6,29.49,SW,235,0.0,0.0,53,0.00,,---,0.00,VWS V14.01,2013-03-06 14:25:00,
2013-03-06 07:30:00,28.6,13.6,29.49,SW,236,0.0,0.0,53,0.00,,---,0.00,VWS V14.01,2013-03-06 14:30:00,
2013-03-06 07:35:00,28.8,13.8,29.49,SW,235,0.0,0.0,53,0.00,,---,0.00,VWS V14.01,2013-03-06 14:35:00,
2013-03-06 07:40:00,28.9,14.0,29.49,SW,235,0.0,0.0,53,0.00,,---,0.00,VWS V14.01,2013-03-06 14:40:00,
2013-03-06 07:45:00,29.1,14.1,29.49,SW,235,0.0,0.0,53,0.00,,---,0.00,VWS V14.01,2013-03-06 14:45:00,
2013-03-06 07:50:00,29.1,14.1,29.49,West,269,2.7,2.7,53,0.00,,---,0.00,VWS V14.01,2013-03-06 14:50:00,
2013-03-06 07:55:00,29.1,14.6,29.49,West,274,0.0,0.0,54,0.00,,---,0.00,VWS V14.01,2013-03-06 14:55:00,
2013-03-06 08:00:00,28.9,14.4,29.49,NW,311,2.7,2.7,54,0.00,,---,0.00,VWS V14.01,2013-03-06 15:00:00,
2013-03-06 08:05:00,28.9,14.4,29.46,West,262,4.0,4.0,54,0.00,,---,0.00,VWS V14.01,2013-03-06 15:05:00,
2013-03-06 08:10:00,28.9,14.4,29.46,West,266,0.0,0.0,54,0.00,,---,0.00,VWS V14.01,2013-03-06 15:10:00,
2013-03-06 08:15:00,29.3,14.7,29.46,West,266,0.0,0.0,54,0.00,,---,0.00,VWS V14.01,2013-03-06 15:15:00,
2013-03-06 08:20:00,29.5,14.9,29.49,West,266,0.0,0.0,54,0.00,,---,0.00,VWS V14.01,2013-03-06 15:20:00,
2013-03-06 08:25:00,29.7,14.6,29.49,West,266,0.0,0.0,53,0.00,,---,0.00,VWS V14.01,2013-03-06 15:25:00,
2013-03-06 08:30:00,30.0,15.0,29.49,West,266,0.0,0.0,53,0.00,,---,0.00,VWS V14.01,2013-03-06 15:30:00,
2013-03-06 08:35:00,30.2,15.6,29.49,West,266,0.0,0.0,54,0.00,,---,0.00,VWS V14.01,2013-03-06 15:35:00,
2013-03-06 08:40:00,30.4,15.3,29.49,West,266,0.0,0.0,53,0.00,,---,0.00,VWS V14.01,2013-03-06 15:40:00,
2013-03-06 08:45:00,30.9,15.8,29.49,West,266,0.0,0.0,53,0.00,,---,0.00,VWS V14.01,2013-03-06 15:45:00,
2013-03-06 08:50:00,31.3,16.6,29.49,West,266,0.0,0.0,54,0.00,,---,0.00,VWS V14.01,2013-03-06 15:50:00,
2013-03-06 08:55:00,32.0,16.8,29.49,West,266,0.0,0.0,53,0.00,,---,0.00,VWS V14.01,2013-03-06 15:55:00,
2013-03-06 09:00:00,32.5,17.3,29.49,NNW,345,0.0,0.0,53,0.00,,---,0.00,VWS V14.01,2013-03-06 16:00:00,
2013-03-06 09:05:00,32.7,17.0,29.49,North,349,0.0,0.0,52,0.00,,---,0.00,VWS V14.01,2013-03-06 16:05:00,
2013-03-06 09:10:00,33.1,16.9,29.49,NE,53,0.0,0.0,51,0.00,,---,0.00,VWS V14.01,2013-03-06 16:10:00,
2013-03-06 09:15:00,33.1,16.5,29.49,NE,53,0.0,0.0,50,0.00,,---,0.00,VWS V14.01,2013-03-06 16:15:00,
2013-03-06 09:20:00,33.1,16.0,29.46,WNW,302,0.0,0.0,49,0.00,,---,0.00,VWS V14.01,2013-03-06 16:20:00,
2013-03-06 09:25:00,33.3,16.6,29.46,NNW,328,0.0,0.0,50,0.00,,---,0.00,VWS V14.01,2013-03-06 16:25:00,
2013-03-06 09:30:00,33.4,16.8,29.46,West,268,0.0,2.2,50,0.00,,---,0.00,VWS V14.01,2013-03-06 16:30:00,
2013-03-06 09:35:00,33.6,16.5,29.46,SW,231,3.1,3.1,49,0.00,,---,0.00,VWS V14.01,2013-03-06 16:35:00,
2013-03-06 09:40:00,33.4,16.4,29.46,West,265,0.0,0.0,49,0.00,,---,0.00,VWS V14.01,2013-03-06 16:40:00,
2013-03-06 09:45:00,33.6,16.0,29.46,West,262,0.0,3.6,48,0.00,,---,0.00,VWS V14.01,2013-03-06 16:45:00,
2013-03-06 09:50:00,33.8,16.2,29.49,West,259,2.2,2.2,48,0.00,,---,0.00,VWS V14.01,2013-03-06 16:50:00,
2013-03-06 09:55:00,34.0,16.4,29.49,WSW,253,0.0,0.0,48,0.00,,---,0.00,VWS V14.01,2013-03-06 16:55:00,
2013-03-06 10:00:00,34.3,16.7,29.49,West,261,0.0,0.0,48,0.00,,---,0.00,VWS V14.01,2013-03-06 17:00:00,
2013-03-06 10:05:00,34.7,17.0,29.49,West,271,0.0,0.0,48,0.00,,---,0.00,VWS V14.01,2013-03-06 17:05:00,
2013-03-06 10:10:00,34.9,16.2,29.49,WNW,293,0.0,0.0,46,0.00,,---,0.00,VWS V14.01,2013-03-06 17:10:00,
2013-03-06 10:15:00,35.2,16.5,29.49,NW,307,0.0,0.0,46,0.00,,---,0.00,VWS V14.01,2013-03-06 17:15:00,
2013-03-06 10:20:00,36.7,17.9,29.46,NE,48,0.0,0.0,46,0.00,,---,0.00,VWS V14.01,2013-03-06 17:20:00,
2013-03-06 10:25:00,37.6,18.2,29.46,NE,53,0.0,0.0,45,0.00,,---,0.00,VWS V14.01,2013-03-06 17:25:00,
2013-03-06 10:30:00,38.3,17.8,29.46,NE,53,0.0,0.0,43,0.00,,---,0.00,VWS V14.01,2013-03-06 17:30:00,
2013-03-06 10:35:00,38.8,17.7,29.46,NE,53,0.0,0.0,42,0.00,,---,0.00,VWS V14.01,2013-03-06 17:35:00,
2013-03-06 10:40:00,40.3,19.0,29.46,SSE,147,8.3,8.3,42,0.00,,---,0.00,VWS V14.01,2013-03-06 17:40:00,
2013-03-06 10:45:00,40.5,18.6,29.46,SSE,152,8.7,8.7,41,0.00,,---,0.00,VWS V14.01,2013-03-06 17:45:00,
2013-03-06 10:50:00,39.7,18.0,29.46,SSE,147,11.0,11.0,41,0.00,,---,0.00,VWS V14.01,2013-03-06 17:50:00,
2013-03-06 10:55:00,39.7,18.5,29.46,SSE,167,7.6,8.7,42,0.00,,---,0.00,VWS V14.01,2013-03-06 17:55:00,
2013-03-06 11:00:00,39.0,19.5,29.46,SSE,150,10.5,10.5,45,0.00,,---,0.00,VWS V14.01,2013-03-06 18:00:00,
2013-03-06 11:05:00,38.7,21.2,29.46,SE,141,13.2,13.2,49,0.00,,---,0.00,VWS V14.01,2013-03-06 18:05:00,
2013-03-06 11:10:00,39.0,21.5,29.46,SSE,164,11.0,11.9,49,0.00,,---,0.00,VWS V14.01,2013-03-06 18:10:00,
2013-03-06 11:15:00,39.9,21.8,29.46,South,173,17.9,17.9,48,0.00,,---,0.00,VWS V14.01,2013-03-06 18:15:00,
2013-03-06 11:20:00,40.8,21.7,29.43,SSE,164,15.9,15.9,46,0.00,,---,0.00,VWS V14.01,2013-03-06 18:20:00,
2013-03-06 11:25:00,40.8,21.7,29.43,SSE,155,15.9,15.9,46,0.00,,---,0.00,VWS V14.01,2013-03-06 18:25:00,
2013-03-06 11:30:00,39.9,20.3,29.43,SE,126,13.6,13.6,45,0.00,,---,0.00,VWS V14.01,2013-03-06 18:30:00,
2013-03-06 11:35:00,40.5,20.8,29.43,SSE,149,13.2,15.9,45,0.00,,---,0.00,VWS V14.01,2013-03-06 18:35:00,
2013-03-06 11:40:00,40.5,20.3,29.43,SSE,150,10.5,16.3,44,0.00,,---,0.00,VWS V14.01,2013-03-06 18:40:00,
2013-03-06 11:45:00,40.8,20.6,29.43,SSE,160,10.5,11.4,44,0.00,,---,0.00,VWS V14.01,2013-03-06 18:45:00,
2013-03-06 11:50:00,41.5,20.7,29.43,SE,130,15.4,15.4,43,0.00,,---,0.00,VWS V14.01,2013-03-06 18:50:00,
2013-03-06 11:55:00,41.7,20.3,29.43,SE,132,17.0,17.0,42,0.00,,---,0.00,VWS V14.01,2013-03-06 18:55:00,
2013-03-06 12:00:00,42.3,20.8,29.43,SSE,156,10.1,16.8,42,0.00,,---,0.00,VWS V14.01,2013-03-06 19:00:00,
2013-03-06 12:05:00,42.8,20.8,29.43,SSE,148,12.8,12.8,41,0.00,,---,0.00,VWS V14.01,2013-03-06 19:05:00,
2013-03-06 12:10:00,43.9,21.1,29.43,SSE,152,6.3,8.7,40,0.00,,---,0.00,VWS V14.01,2013-03-06 19:10:00,
2013-03-06 12:15:00,44.4,21.0,29.43,ESE,118,12.3,12.3,39,0.00,,---,0.00,VWS V14.01,2013-03-06 19:15:00,
2013-03-06 12:20:00,44.4,21.0,29.43,SE,134,10.5,13.2,39,0.00,,---,0.00,VWS V14.01,2013-03-06 19:20:00,
2013-03-06 12:25:00,44.1,20.7,29.43,ESE,113,6.3,8.7,39,0.00,,---,0.00,VWS V14.01,2013-03-06 19:25:00,
2013-03-06 12:30:00,44.4,21.0,29.43,ESE,106,8.3,10.1,39,0.00,,---,0.00,VWS V14.01,2013-03-06 19:30:00,
2013-03-06 12:35:00,43.9,20.5,29.43,ESE,110,14.5,14.5,39,0.00,,---,0.00,VWS V14.01,2013-03-06 19:35:00,
2013-03-06 12:40:00,43.5,20.2,29.43,East,96,10.1,10.1,39,0.00,,---,0.00,VWS V14.01,2013-03-06 19:40:00,
2013-03-06 12:45:00,43.7,20.4,29.43,SE,142,8.1,8.7,39,0.00,,---,0.00,VWS V14.01,2013-03-06 19:45:00,
2013-03-06 12:50:00,44.1,20.7,29.40,SE,124,11.0,11.0,39,0.00,,---,0.00,VWS V14.01,2013-03-06 19:50:00,
2013-03-06 12:55:00,44.8,20.7,29.40,SE,145,11.9,13.2,38,0.00,,---,0.00,VWS V14.01,2013-03-06 19:55:00,
2013-03-06 13:00:00,44.8,20.7,29.40,SE,133,8.1,9.6,38,0.00,,---,0.00,VWS V14.01,2013-03-06 20:00:00,
2013-03-06 13:05:00,44.8,20.7,29.40,SSE,155,11.0,11.0,38,0.00,,---,0.00,VWS V14.01,2013-03-06 20:05:00,
2013-03-06 13:10:00,45.1,21.1,29.40,SE,131,15.0,15.0,38,0.00,,---,0.00,VWS V14.01,2013-03-06 20:10:00,
2013-03-06 13:15:00,45.3,21.2,29.40,SE,137,15.9,15.9,38,0.00,,---,0.00,VWS V14.01,2013-03-06 20:15:00,
2013-03-06 13:20:00,45.7,21.5,29.40,SSE,155,7.6,11.4,38,0.00,,---,0.00,VWS V14.01,2013-03-06 20:20:00,
2013-03-06 13:25:00,46.0,21.9,29.40,SE,139,11.9,11.9,38,0.00,,---,0.00,VWS V14.01,2013-03-06 20:25:00,
2013-03-06 13:30:00,46.6,21.7,29.40,ESE,121,17.4,17.4,37,0.00,,---,0.00,VWS V14.01,2013-03-06 20:30:00,
2013-03-06 13:35:00,47.1,22.2,29.40,SE,128,13.2,13.2,37,0.00,,---,0.00,VWS V14.01,2013-03-06 20:35:00,
2013-03-06 13:40:00,46.9,22.0,29.40,SSE,149,12.3,12.3,37,0.00,,---,0.00,VWS V14.01,2013-03-06 20:40:00,
2013-03-06 13:45:00,48.2,23.2,29.40,South,177,12.3,12.3,37,0.00,,---,0.00,VWS V14.01,2013-03-06 20:45:00,
2013-03-06 13:50:00,49.1,23.3,29.40,SSE,150,4.0,4.0,36,0.00,,---,0.00,VWS V14.01,2013-03-06 20:50:00,
2013-03-06 13:55:00,48.9,22.5,29.40,SE,140,6.3,6.3,35,0.00,,---,0.00,VWS V14.01,2013-03-06 20:55:00,
2013-03-06 14:00:00,49.1,22.6,29.40,ESE,106,2.7,2.7,35,0.00,,---,0.00,VWS V14.01,2013-03-06 21:00:00,
2013-03-06 14:05:00,48.0,22.4,29.40,SSE,147,8.7,8.7,36,0.00,,---,0.00,VWS V14.01,2013-03-06 21:05:00,
2013-03-06 14:10:00,46.8,21.2,29.40,SSE,151,8.1,8.1,36,0.00,,---,0.00,VWS V14.01,2013-03-06 21:10:00,
2013-03-06 14:15:00,46.8,21.2,29.40,SSE,155,8.1,10.5,36,0.00,,---,0.00,VWS V14.01,2013-03-06 21:15:00,
2013-03-06 14:20:00,46.8,21.2,29.40,South,187,6.3,6.3,36,0.00,,---,0.00,VWS V14.01,2013-03-06 21:20:00,
2013-03-06 14:25:00,46.8,21.9,29.40,SSE,164,5.8,8.3,37,0.00,,---,0.00,VWS V14.01,2013-03-06 21:25:00,
2013-03-06 14:30:00,46.0,20.6,29.40,SE,146,10.1,13.2,36,0.00,,---,0.00,VWS V14.01,2013-03-06 21:30:00,
2013-03-06 14:35:00,45.9,21.1,29.40,SE,137,10.5,13.6,37,0.00,,---,0.00,VWS V14.01,2013-03-06 21:35:00,
2013-03-06 14:40:00,45.9,21.1,29.40,SSE,159,3.1,3.1,37,0.00,,---,0.00,VWS V14.01,2013-03-06 21:40:00,
2013-03-06 14:45:00,45.3,20.6,29.40,SSE,168,4.0,4.0,37,0.00,,---,0.00,VWS V14.01,2013-03-06 21:45:00,
2013-03-06 14:50:00,44.2,20.3,29.43,SSW,197,6.3,7.6,38,0.00,,---,0.00,VWS V14.01,2013-03-06 21:50:00,
2013-03-06 14:55:00,41.0,26.1,29.43,SSW,206,11.9,12.8,55,0.00,,---,0.00,VWS V14.01,2013-03-06 21:55:00,
2013-03-06 15:00:00,37.4,29.2,29.43,SSE,168,9.2,9.6,72,0.00,,---,0.00,VWS V14.01,2013-03-06 22:00:00,
2013-03-06 15:05:00,35.4,28.9,29.46,SSW,207,19.7,19.7,77,0.00,,---,0.00,VWS V14.01,2013-03-06 22:05:00,
2013-03-06 15:10:00,35.1,30.4,29.46,West,267,13.2,14.1,83,0.00,,---,0.00,VWS V14.01,2013-03-06 22:10:00,
2013-03-06 15:15:00,35.4,30.8,29.46,WNW,287,6.7,9.6,83,0.00,,---,0.00,VWS V14.01,2013-03-06 22:15:00,
2013-03-06 15:20:00,35.6,31.0,29.46,West,273,8.3,8.3,83,0.00,,---,0.00,VWS V14.01,2013-03-06 22:20:00,
2013-03-06 15:24:00,35.6,31.0,29.46,SE,131,3.6,11.4,83,0.00,,---,0.00,VWS V14.01,2013-03-06 22:24:00,
2013-03-06 15:30:00,35.6,27.5,29.46,SE,145,8.1,8.1,72,0.00,,---,0.00,VWS V14.01,2013-03-06 22:30:00,
2013-03-06 15:34:00,35.6,25.4,29.43,SE,141,8.7,13.2,66,0.00,,---,0.00,VWS V14.01,2013-03-06 22:34:00,
2013-03-06 15:39:00,36.3,24.6,29.43,SE,128,8.7,8.7,62,0.00,,---,0.00,VWS V14.01,2013-03-06 22:39:00,
2013-03-06 15:44:00,36.9,25.5,29.43,NE,48,8.1,8.1,63,0.00,,---,0.00,VWS V14.01,2013-03-06 22:44:00,
2013-03-06 15:49:00,36.9,25.8,29.43,North,8,12.8,12.8,64,0.00,,---,0.00,VWS V14.01,2013-03-06 22:49:00,
2013-03-06 15:54:00,36.5,25.1,29.43,ESE,102,8.1,14.1,63,0.00,,---,0.00,VWS V14.01,2013-03-06 22:54:00,
2013-03-06 15:59:00,36.5,25.1,29.43,East,94,10.1,11.0,63,0.00,,---,0.00,VWS V14.01,2013-03-06 22:59:00,
2013-03-06 16:04:00,37.4,23.6,29.40,SE,134,11.9,15.4,57,0.00,,---,0.00,VWS V14.01,2013-03-06 23:04:00,
2013-03-06 16:09:00,38.7,22.1,29.40,SE,125,7.6,11.0,51,0.00,,---,0.00,VWS V14.01,2013-03-06 23:09:00,
2013-03-06 16:14:00,38.5,21.9,29.40,SE,128,17.0,17.0,51,0.00,,---,0.00,VWS V14.01,2013-03-06 23:14:00,
2013-03-06 16:19:00,39.2,22.6,29.40,SSE,152,5.4,8.7,51,0.00,,---,0.00,VWS V14.01,2013-03-06 23:19:00,
2013-03-06 16:24:00,39.7,24.0,29.40,South,169,5.8,5.8,53,0.00,,---,0.00,VWS V14.01,2013-03-06 23:24:00,
2013-03-06 16:29:00,39.4,22.8,29.40,SSE,156,6.3,6.3,51,0.00,,---,0.00,VWS V14.01,2013-03-06 23:29:00,
2013-03-06 16:34:00,39.4,23.7,29.40,SSW,196,0.0,0.0,53,0.00,,---,0.00,VWS V14.01,2013-03-06 23:34:00,
2013-03-06 16:39:00,39.4,22.8,29.40,SE,131,2.2,6.3,51,0.00,,---,0.00,VWS V14.01,2013-03-06 23:39:00,
2013-03-06 16:44:00,39.4,22.8,29.40,South,190,0.0,0.0,51,0.00,,---,0.00,VWS V14.01,2013-03-06 23:44:00,
2013-03-06 16:49:00,39.4,21.8,29.43,SW,230,5.8,5.8,49,0.00,,---,0.00,VWS V14.01,2013-03-06 23:49:00,
2013-03-06 16:54:00,39.2,22.1,29.43,SE,142,5.8,10.5,50,0.00,,---,0.00,VWS V14.01,2013-03-06 23:54:00,
2013-03-06 16:59:00,39.0,23.4,29.43,NE,47,4.0,7.6,53,0.00,,---,0.00,VWS V14.01,2013-03-06 23:59:00,
2013-03-06 17:04:00,38.8,23.2,29.43,ENE,64,5.8,6.7,53,0.00,,---,0.00,VWS V14.01,2013-03-07 00:04:00,
2013-03-06 17:09:00,38.8,23.2,29.43,NNE,25,0.0,0.0,53,0.00,,---,0.00,VWS V14.01,2013-03-07 00:09:00,
2013-03-06 17:14:00,38.8,22.7,29.43,NNE,25,0.0,0.0,52,0.00,,---,0.00,VWS V14.01,2013-03-07 00:14:00,
2013-03-06 17:19:00,38.8,24.5,29.43,NNE,25,0.0,0.0,56,0.00,,---,0.00,VWS V14.01,2013-03-07 00:19:00,
2013-03-06 17:24:00,38.8,24.5,29.43,NW,316,3.1,4.0,56,0.00,,---,0.00,VWS V14.01,2013-03-07 00:24:00,
2013-03-06 17:29:00,38.1,24.7,29.43,NW,309,5.4,5.4,58,0.00,,---,0.00,VWS V14.01,2013-03-07 00:29:00,
2013-03-06 17:34:00,37.6,25.0,29.43,NNW,328,2.7,2.7,60,0.00,,---,0.00,VWS V14.01,2013-03-07 00:34:00,
2013-03-06 17:39:00,37.2,25.4,29.43,NNW,344,0.0,0.0,62,0.00,,---,0.00,VWS V14.01,2013-03-07 00:39:00,
2013-03-06 17:44:00,37.0,26.4,29.43,NNE,30,0.0,0.0,65,0.00,,---,0.00,VWS V14.01,2013-03-07 00:44:00,
2013-03-06 17:49:00,36.9,26.2,29.43,NNE,30,0.0,0.0,65,0.00,,---,0.00,VWS V14.01,2013-03-07 00:49:00,
2013-03-06 17:54:00,36.7,26.4,29.43,NNE,31,0.0,0.0,66,0.00,,---,0.00,VWS V14.01,2013-03-07 00:54:00,
2013-03-06 17:59:00,36.7,27.1,29.43,NE,44,0.0,0.0,68,0.00,,---,0.00,VWS V14.01,2013-03-07 00:59:00,
2013-03-06 18:04:00,36.5,26.6,29.46,North,7,0.0,0.0,67,0.00,,---,0.00,VWS V14.01,2013-03-07 01:04:00,
2013-03-06 18:09:00,36.3,26.8,29.46,North,2,0.0,0.0,68,0.00,,---,0.00,VWS V14.01,2013-03-07 01:09:00,
2013-03-06 18:14:00,36.5,26.6,29.46,NNW,338,5.4,6.3,67,0.00,,---,0.00,VWS V14.01,2013-03-07 01:14:00,
2013-03-06 18:19:00,36.5,27.0,29.46,NNW,330,4.0,6.3,68,0.00,,---,0.00,VWS V14.01,2013-03-07 01:19:00,
2013-03-06 18:24:00,36.3,26.8,29.46,NW,304,5.4,5.4,68,0.00,,---,0.00,VWS V14.01,2013-03-07 01:24:00,
2013-03-06 18:29:00,36.3,27.1,29.46,NW,305,4.0,5.4,69,0.00,,---,0.00,VWS V14.01,2013-03-07 01:29:00,
2013-03-06 18:34:00,35.8,27.0,29.43,NW,307,0.0,2.2,70,0.00,,---,0.00,VWS V14.01,2013-03-07 01:34:00,
2013-03-06 18:39:00,35.1,27.0,29.43,West,267,2.7,3.6,72,0.00,,---,0.00,VWS V14.01,2013-03-07 01:39:00,
2013-03-06 18:44:00,34.7,29.5,29.43,SSE,155,4.9,4.9,81,0.00,,---,0.00,VWS V14.01,2013-03-07 01:44:00,
2013-03-06 18:49:00,34.5,30.8,29.46,SSE,149,0.0,0.0,86,0.00,,---,0.00,VWS V14.01,2013-03-07 01:49:00,
2013-03-06 18:54:00,34.3,30.6,29.46,SSE,150,0.0,0.0,86,0.00,,---,0.00,VWS V14.01,2013-03-07 01:54:00,
2013-03-06 18:59:00,34.2,30.4,29.46,NE,35,0.0,0.0,86,0.00,,---,0.00,VWS V14.01,2013-03-07 01:59:00,
2013-03-06 19:04:00,34.0,30.2,29.46,North,11,0.0,0.0,86,0.00,,---,0.00,VWS V14.01,2013-03-07 02:04:00,
2013-03-06 19:09:00,34.0,30.2,29.46,North,11,0.0,0.0,86,0.00,,---,0.00,VWS V14.01,2013-03-07 02:09:00,
2013-03-06 19:14:00,34.0,30.8,29.46,East,83,0.0,0.0,88,0.00,,---,0.00,VWS V14.01,2013-03-07 02:14:00,
2013-03-06 19:19:00,34.0,31.4,29.46,SSE,159,0.0,0.0,90,0.00,,---,0.00,VWS V14.01,2013-03-07 02:19:00,
2013-03-06 19:24:00,33.8,31.2,29.46,SSE,158,0.0,0.0,90,0.00,,---,0.00,VWS V14.01,2013-03-07 02:24:00,
2013-03-06 19:29:00,33.8,31.2,29.46,SSE,158,0.0,0.0,90,0.00,,---,0.00,VWS V14.01,2013-03-07 02:29:00,
2013-03-06 19:34:00,33.8,31.2,29.46,SSE,158,0.0,0.0,90,0.00,,---,0.00,VWS V14.01,2013-03-07 02:34:00,
2013-03-06 19:39:00,33.8,30.9,29.46,SSE,158,0.0,0.0,89,0.00,,---,0.00,VWS V14.01,2013-03-07 02:39:00,
2013-03-06 19:44:00,33.8,30.9,29.46,WSW,238,0.0,0.0,89,0.00,,---,0.00,VWS V14.01,2013-03-07 02:44:00,
2013-03-06 19:49:00,33.6,30.7,29.46,WSW,240,0.0,0.0,89,0.00,,---,0.00,VWS V14.01,2013-03-07 02:49:00,
2013-03-06 19:54:00,33.6,30.7,29.46,NW,306,0.0,0.0,89,0.00,,---,0.00,VWS V14.01,2013-03-07 02:54:00,
2013-03-06 19:59:00,33.6,30.7,29.46,NW,306,0.0,0.0,89,0.00,,---,0.00,VWS V14.01,2013-03-07 02:59:00,
2013-03-06 20:04:00,33.4,30.5,29.46,NW,306,0.0,0.0,89,0.00,,---,0.00,VWS V14.01,2013-03-07 03:04:00,
2013-03-06 20:09:00,33.3,30.4,29.46,NW,306,0.0,0.0,89,0.00,,---,0.00,VWS V14.01,2013-03-07 03:09:00,
2013-03-06 20:14:00,33.3,30.4,29.46,NW,306,0.0,0.0,89,0.00,,---,0.00,VWS V14.01,2013-03-07 03:14:00,
2013-03-06 20:19:00,33.1,29.9,29.46,WNW,291,0.0,0.0,88,0.00,,---,0.00,VWS V14.01,2013-03-07 03:19:00,
2013-03-06 20:24:00,32.9,29.7,29.46,WNW,293,0.0,0.0,88,0.00,,---,0.00,VWS V14.01,2013-03-07 03:24:00,
2013-03-06 20:29:00,32.7,29.6,29.46,WNW,292,0.0,0.0,88,0.00,,---,0.00,VWS V14.01,2013-03-07 03:29:00,
2013-03-06 20:34:00,32.7,29.6,29.46,WNW,292,0.0,0.0,88,0.00,,---,0.00,VWS V14.01,2013-03-07 03:34:00,
2013-03-06 20:39:00,32.5,29.4,29.46,West,265,0.0,0.0,88,0.00,,---,0.00,VWS V14.01,2013-03-07 03:39:00,
2013-03-06 20:44:00,32.5,29.7,29.46,SE,143,0.0,0.0,89,0.00,,---,0.00,VWS V14.01,2013-03-07 03:44:00,
2013-03-06 20:49:00,32.4,29.2,29.46,SE,145,0.0,0.0,88,0.00,,---,0.00,VWS V14.01,2013-03-07 03:49:00,
2013-03-06 20:54:00,32.4,29.2,29.46,West,261,0.0,0.0,88,0.00,,---,0.00,VWS V14.01,2013-03-07 03:54:00,
2013-03-06 20:59:00,32.4,29.2,29.46,West,260,0.0,0.0,88,0.00,,---,0.00,VWS V14.01,2013-03-07 03:59:00,
2013-03-06 21:04:00,32.5,29.7,29.49,West,261,0.0,0.0,89,0.00,,---,0.00,VWS V14.01,2013-03-07 04:04:00,
2013-03-06 21:09:00,32.4,29.5,29.49,NW,310,0.0,0.0,89,0.00,,---,0.00,VWS V14.01,2013-03-07 04:09:00,
2013-03-06 21:14:00,32.2,29.0,29.49,NW,311,0.0,0.0,88,0.00,,---,0.00,VWS V14.01,2013-03-07 04:14:00,
2013-03-06 21:19:00,32.2,29.0,29.49,NW,311,0.0,0.0,88,0.00,,---,0.00,VWS V14.01,2013-03-07 04:19:00,
2013-03-06 21:24:00,31.8,28.7,29.49,WSW,245,0.0,0.0,88,0.00,,---,0.00,VWS V14.01,2013-03-07 04:24:00,
2013-03-06 21:29:00,31.8,28.7,29.49,SW,227,4.0,4.9,88,0.00,,---,0.00,VWS V14.01,2013-03-07 04:29:00,
2013-03-06 21:34:00,32.0,28.9,29.46,West,260,0.0,0.0,88,0.00,,---,0.00,VWS V14.01,2013-03-07 04:34:00,
2013-03-06 21:39:00,32.2,29.3,29.46,WSW,247,0.0,0.0,89,0.00,,---,0.00,VWS V14.01,2013-03-07 04:39:00,
2013-03-06 21:44:00,32.2,29.3,29.46,WSW,247,0.0,0.0,89,0.00,,---,0.00,VWS V14.01,2013-03-07 04:44:00,
2013-03-06 21:49:00,32.4,29.5,29.49,WSW,247,0.0,0.0,89,0.00,,---,0.00,VWS V14.01,2013-03-07 04:49:00,
2013-03-06 21:54:00,32.5,29.7,29.49,WSW,253,0.0,0.0,89,0.00,,---,0.00,VWS V14.01,2013-03-07 04:54:00,
2013-03-06 21:59:00,32.7,29.8,29.49,NW,305,0.0,0.0,89,0.00,,---,0.00,VWS V14.01,2013-03-07 04:59:00,
2013-03-06 22:00:00,32.7,29.8,29.49,NW,305,0.0,0.0,89,0.00,,---,0.00,VWS V14.01,2013-03-07 05:00:00,
2013-03-06 22:05:00,32.7,29.6,29.49,ENE,71,3.6,3.6,88,0.00,,---,0.00,VWS V14.01,2013-03-07 05:05:00,
2013-03-06 22:10:00,32.9,26.2,29.49,SSW,207,3.1,4.9,76,0.00,,---,0.00,VWS V14.01,2013-03-07 05:10:00,
2013-03-06 22:15:00,34.0,24.5,29.49,SSE,156,8.1,11.9,68,0.00,,---,0.00,VWS V14.01,2013-03-07 05:15:00,
2013-03-06 22:20:00,34.0,22.7,29.49,SE,146,10.5,13.6,63,0.00,,---,0.00,VWS V14.01,2013-03-07 05:20:00,
2013-03-06 22:25:00,34.7,19.8,29.49,South,177,8.1,8.1,54,0.00,,---,0.00,VWS V14.01,2013-03-07 05:25:00,
2013-03-06 22:30:00,35.4,18.6,29.49,SSE,166,8.3,8.3,50,0.00,,---,0.00,VWS V14.01,2013-03-07 05:30:00,
2013-03-06 22:35:00,35.1,19.2,29.49,South,185,5.4,8.1,52,0.00,,---,0.00,VWS V14.01,2013-03-07 05:35:00,
2013-03-06 22:40:00,35.1,18.8,29.49,South,171,9.6,9.6,51,0.00,,---,0.00,VWS V14.01,2013-03-07 05:40:00,
2013-03-06 22:45:00,35.1,18.3,29.49,South,181,12.3,12.3,50,0.00,,---,0.00,VWS V14.01,2013-03-07 05:45:00,
2013-03-06 22:50:00,35.1,17.8,29.49,SW,222,5.8,5.8,49,0.00,,---,0.00,VWS V14.01,2013-03-07 05:50:00,
2013-03-06 22:55:00,35.4,18.2,29.49,West,277,5.4,7.2,49,0.00,,---,0.00,VWS V14.01,2013-03-07 05:55:00,
2013-03-06 23:00:00,34.2,22.5,29.49,West,275,3.1,3.1,62,0.00,,---,0.00,VWS V14.01,2013-03-07 06:00:00,
2013-03-06 23:05:00,33.3,23.1,29.49,WNW,292,3.6,3.6,66,0.00,,---,0.00,VWS V14.01,2013-03-07 06:05:00,
2013-03-06 23:10:00,32.9,24.2,29.49,WNW,294,0.0,0.0,70,0.00,,---,0.00,VWS V14.01,2013-03-07 06:10:00,
2013-03-06 23:15:00,32.5,24.2,29.49,WNW,298,0.0,0.0,71,0.00,,---,0.00,VWS V14.01,2013-03-07 06:15:00,
2013-03-06 23:20:00,32.4,25.0,29.49,WNW,298,0.0,0.0,74,0.00,,---,0.00,VWS V14.01,2013-03-07 06:20:00,
2013-03-06 23:25:00,32.2,25.5,29.49,WNW,298,0.0,0.0,76,0.00,,---,0.00,VWS V14.01,2013-03-07 06:25:00,
2013-03-06 23:30:00,31.8,25.8,29.49,WNW,298,0.0,0.0,78,0.00,,---,0.00,VWS V14.01,2013-03-07 06:30:00,
2013-03-06 23:35:00,31.5,25.1,29.52,WNW,298,0.0,0.0,77,0.00,,---,0.00,VWS V14.01,2013-03-07 06:35:00,
2013-03-06 23:40:00,31.3,24.9,29.52,WNW,298,0.0,0.0,77,0.00,,---,0.00,VWS V14.01,2013-03-07 06:40:00,
2013-03-06 23:45:00,31.3,26.1,29.52,WNW,297,0.0,0.0,81,0.00,,---,0.00,VWS V14.01,2013-03-07 06:45:00,
2013-03-06 23:50:00,31.8,26.1,29.52,SE,138,2.7,4.0,79,0.00,,---,0.00,VWS V14.01,2013-03-07 06:50:00,
2013-03-06 23:55:00,31.6,23.7,29.52,South,174,4.0,4.0,72,0.00,,---,0.00,VWS V14.01,2013-03-07 06:55:00,